TimeCST,TemperatureF,Dew PointF,Humidity,Sea Level PressureIn,VisibilityMPH,Wind Direction,Wind SpeedMPH,Gust SpeedMPH,PrecipitationIn,Events,Conditions,WindDirDegrees,DateUTC
12:58 AM,42.1,39.2,90,30.17,10.0,NNW,3.5,-,N/A,,Clear,330,2014-03-06 06:58:00
1:18 AM,42.8,39.2,87,30.16,9.0,NNW,4.6,-,N/A,,Clear,340,2014-03-06 07:18:00
1:58 AM,43.2,40.3,90,30.17,10.0,WNW,3.5,-,N/A,,Clear,300,2014-03-06 07:58:00
2:03 AM,42.8,41.0,93,30.16,10.0,WNW,4.6,-,N/A,,Clear,300,2014-03-06 08:03:00
2:48 AM,42.8,39.2,87,30.15,10.0,North,6.9,-,N/A,,Clear,350,2014-03-06 08:48:00
2:58 AM,43.9,40.3,87,30.15,10.0,North,6.9,-,N/A,,Clear,350,2014-03-06 08:58:00
3:58 AM,43.2,39.6,87,30.15,10.0,NNW,6.9,-,N/A,,Clear,330,2014-03-06 09:58:00
4:58 AM,42.4,39.0,88,30.17,10.0,NNW,8.1,-,N/A,,Clear,330,2014-03-06 10:58:00
5:58 AM,41.4,37.9,88,30.19,10.0,NW,9.2,-,N/A,,Clear,320,2014-03-06 11:58:00
6:58 AM,40.6,36.7,86,30.22,10.0,NNW,8.1,-,N/A,,Clear,340,2014-03-06 12:58:00
7:58 AM,44.4,37.9,78,30.24,10.0,NNW,12.7,-,N/A,,Clear,340,2014-03-06 13:58:00
8:58 AM,47.3,37.9,70,30.25,10.0,North,13.8,-,N/A,,Clear,360,2014-03-06 14:58:00
9:58 AM,50.5,37.6,61,30.25,10.0,North,12.7,18.4,N/A,,Clear,350,2014-03-06 15:58:00
10:58 AM,53.4,37.6,55,30.25,10.0,NNE,10.4,-,N/A,,Clear,20,2014-03-06 16:58:00
11:58 AM,54.7,38.1,54,30.25,10.0,NNE,11.5,-,N/A,,Clear,20,2014-03-06 17:58:00
12:58 PM,54.3,37.6,53,30.23,10.0,North,11.5,-,N/A,,Clear,350,2014-03-06 18:58:00
1:58 PM,56.7,37.9,50,30.19,10.0,NNW,9.2,-,N/A,,Clear,330,2014-03-06 19:58:00
2:58 PM,59.2,37.2,44,30.14,10.0,North,8.1,-,N/A,,Clear,10,2014-03-06 20:58:00
3:58 PM,61.2,36.5,40,30.11,10.0,NE,6.9,-,N/A,,Clear,40,2014-03-06 21:58:00
4:58 PM,61.9,36.1,38,30.09,10.0,NE,6.9,-,N/A,,Clear,50,2014-03-06 22:58:00
5:58 PM,59.0,36.1,42,30.09,10.0,Calm,Calm,-,N/A,,Clear,0,2014-03-06 23:58:00
6:58 PM,53.1,37.4,55,30.08,10.0,East,4.6,-,N/A,,Clear,100,2014-03-07 00:58:00
7:58 PM,50.2,36.1,59,30.09,10.0,ENE,5.8,-,N/A,,Clear,70,2014-03-07 01:58:00
8:58 PM,51.1,36.1,57,30.10,10.0,SE,2.3,-,N/A,,Clear,140,2014-03-07 02:58:00
9:58 PM,46.6,36.5,68,30.11,10.0,ESE,3.5,-,N/A,,Clear,110,2014-03-07 03:58:00
10:58 PM,43.7,36.0,74,30.09,10.0,Calm,Calm,-,N/A,,Clear,0,2014-03-07 04:58:00
11:58 PM,42.1,35.4,77,30.09,10.0,ENE,2.3,-,N/A,,Clear,60,2014-03-07 05:58:00